Overview Statistics Trail Chart Weather Telemetry Raw packets
 

This is the latest recevied weather packets stored in our database for station/object KN6WGU. If no packets are shown the sender has not sent any weather packets the latest 10 day(s).

<< 52 53 54 55 56 57 58 >>
Time Temp. Humidity Pressure Rain* Wind** Luminosity Snow
1788264275 26.67° C 79% 1009 hPa 0 mm - 41 W/m² -
1788263971 26.67° C 78% 1009 hPa 0 mm - 39 W/m² -
1788263670 26.67° C 78% 1009.1 hPa 0 mm - 34 W/m² -
1788263368 26.67° C 78% 1008.8 hPa 0 mm - 25 W/m² -
1788262761 26.67° C 77% 1008.9 hPa 0 mm - 15 W/m² -
1788262460 26.67° C 77% 1008.8 hPa 0 mm - 13 W/m² -
1788262156 26.67° C 77% 1008.8 hPa 0 mm - 8 W/m² -
1788261851 26.67° C 78% 1009 hPa 0 mm - 6 W/m² -
1788261546 26.67° C 77% 1008.8 hPa 0 mm - 5 W/m² -
1788261244 26.67° C 78% 1008.8 hPa 0 mm - 3 W/m² -
1788260943 26.11° C 78% 1008.8 hPa 0 mm - 3 W/m² -
1788260639 26.11° C 78% 1008.8 hPa 0 mm - 1 W/m² -
1788260334 26.11° C 80% 1008.7 hPa 0 mm - 1 W/m² -
1788260030 26.11° C 79% 1008.6 hPa 0 mm - 1 W/m² -
1788259726 26.11° C 80% 1008.5 hPa 0 mm - 0 W/m² -
1788259421 26.11° C 80% 1008.5 hPa 0 mm - 0 W/m² -
1788259117 26.11° C 80% 1008.4 hPa 0 mm - 0 W/m² -
1788258816 26.11° C 80% 1008.4 hPa 0 mm - 0 W/m² -
1788258512 26.11° C 80% 1008.3 hPa 0 mm - 0 W/m² -
1788258211 26.11° C 80% 1008.4 hPa 0 mm - 0 W/m² -
1788257907 26.11° C 80% 1008.2 hPa 0 mm - 0 W/m² -
1788257607 26.11° C 80% 1008.3 hPa 0 mm - 0 W/m² -
1788257306 26.11° C 80% 1008.2 hPa 0 mm - 0 W/m² -
1788257001 26.11° C 80% 1008.2 hPa 0 mm - 0 W/m² -
1788256700 26.11° C 80% 1008.2 hPa 0 mm - 0 W/m² -

* Rain latest hour (hover to see other rain measurements)
** Current wind speed in m/s (hover to see current wind gust speed)